NJE5R LFMN-EGLF

Flight info

Callsign NJE5R
Flight time 1h 31m
Altitude 38000
Route BADOD DCT NEDRU DCT LTP DCT BULOL DCT IDAVO DCT BAGBI DCT SIZZA DCT LAULY DCT BRY DCT CLM DCT KOPOR DCT SOSUN DCT SUBIP UM8 ELDAX
Aircraft CL60/M-SBDE1E2E3FGHIJ1J4J5J7M3RWXYZ/LB1V1D1

Departure

Time 2026-05-01 13:41
Airport Nice-Côte d'Azur Airport (LFMN)

Arrival

Time 2026-05-01 15:12
Airport Farnborough Airport (EGLF)
Time Latitude Longitude Altitude Speed Heading
2026-05-01 13:18 43.65582 7.20520 33 ft 0 kts 134°
2026-05-01 13:36 43.65580 7.20523 33 ft 1 kts 134°
2026-05-01 13:36 43.65550 7.20564 33 ft 0 kts 135°
2026-05-01 13:37 43.65534 7.20562 33 ft 6 kts 206°
2026-05-01 13:37 43.65483 7.20498 33 ft 12 kts 225°
2026-05-01 13:37 43.65414 7.20402 33 ft 15 kts 225°
2026-05-01 13:37 43.65350 7.20314 33 ft 5 kts 222°
2026-05-01 13:38 43.65239 7.20347 32 ft 12 kts 137°
2026-05-01 13:38 43.65172 7.20441 32 ft 13 kts 135°
2026-05-01 13:38 43.65077 7.20465 31 ft 16 kts 207°
2026-05-01 13:39 43.64988 7.20355 31 ft 18 kts 224°
2026-05-01 13:39 43.64889 7.20219 31 ft 21 kts 225°
2026-05-01 13:39 43.64799 7.20131 31 ft 13 kts 173°
2026-05-01 13:39 43.64721 7.20210 30 ft 13 kts 135°
2026-05-01 13:40 43.64689 7.20266 30 ft 6 kts 69°
2026-05-01 13:40 43.64719 7.20308 30 ft 10 kts 44°
2026-05-01 13:40 43.64952 7.20626 31 ft 92 kts 43°
2026-05-01 13:40 43.65622 7.21551 83 ft 170 kts 46°
2026-05-01 13:41 43.66555 7.22826 622 ft 206 kts 47°
2026-05-01 13:41 43.67231 7.24539 1406 ft 210 kts 85°
2026-05-01 13:41 43.66863 7.26386 2576 ft 208 kts 130°
2026-05-01 13:41 43.65791 7.27660 3902 ft 213 kts 143°
2026-05-01 13:42 43.64626 7.28867 5187 ft 219 kts 142°
2026-05-01 13:42 43.63415 7.30136 6436 ft 226 kts 142°
2026-05-01 13:42 43.62122 7.31298 7695 ft 230 kts 156°
2026-05-01 13:42 43.60582 7.31713 8948 ft 233 kts 182°
2026-05-01 13:43 43.59085 7.31079 10197 ft 233 kts 208°
2026-05-01 13:43 43.57718 7.29923 11296 ft 236 kts 210°
2026-05-01 13:43 43.56356 7.28628 12170 ft 247 kts 222°
2026-05-01 13:43 43.55308 7.26683 12917 ft 262 kts 245°
2026-05-01 13:44 43.54846 7.24228 13698 ft 273 kts 270°
2026-05-01 13:44 43.55155 7.21612 14356 ft 288 kts 296°
2026-05-01 13:44 43.56392 7.19344 14891 ft 306 kts 321°
2026-05-01 13:44 43.58070 7.17389 15377 ft 331 kts 323°
2026-05-01 13:45 43.59894 7.15267 15851 ft 354 kts 322°
2026-05-01 13:45 43.61823 7.13011 16351 ft 372 kts 322°
2026-05-01 13:45 43.63842 7.10642 16754 ft 385 kts 322°
2026-05-01 13:45 43.65881 7.08244 17023 ft 388 kts 322°
2026-05-01 13:46 43.67950 7.05806 17261 ft 386 kts 322°
2026-05-01 13:46 43.69982 7.03409 17423 ft 387 kts 322°
2026-05-01 13:46 43.72029 7.00992 17542 ft 387 kts 322°
2026-05-01 13:46 43.74086 6.98559 17564 ft 387 kts 322°
2026-05-01 13:47 43.76143 6.96127 17461 ft 386 kts 322°
2026-05-01 13:47 43.78162 6.93736 17334 ft 383 kts 322°
2026-05-01 13:47 43.80199 6.91320 17226 ft 382 kts 322°
2026-05-01 13:47 43.82227 6.88913 17145 ft 381 kts 322°
2026-05-01 13:48 43.84235 6.86532 17111 ft 382 kts 322°
2026-05-01 13:48 43.86264 6.84120 17141 ft 381 kts 322°
2026-05-01 13:48 43.88264 6.81738 17472 ft 376 kts 322°
2026-05-01 13:48 43.90241 6.79383 18008 ft 379 kts 322°
2026-05-01 13:49 43.92258 6.76979 18592 ft 388 kts 322°
2026-05-01 13:49 43.94360 6.74593 19161 ft 394 kts 328°
2026-05-01 13:49 43.96747 6.72600 19731 ft 400 kts 333°
2026-05-01 13:49 43.99152 6.70692 20337 ft 405 kts 333°
2026-05-01 13:50 44.01630 6.68714 21105 ft 410 kts 332°
2026-05-01 13:50 44.04154 6.66796 21807 ft 414 kts 335°
2026-05-01 13:50 44.06741 6.64974 22393 ft 418 kts 335°
2026-05-01 13:50 44.09336 6.63145 22949 ft 421 kts 335°
2026-05-01 13:51 44.11962 6.61290 23455 ft 425 kts 335°
2026-05-01 13:51 44.14603 6.59422 24016 ft 427 kts 335°
2026-05-01 13:51 44.17250 6.57547 24619 ft 429 kts 335°
2026-05-01 13:51 44.19927 6.55648 25245 ft 433 kts 335°
2026-05-01 13:52 44.22637 6.53723 25852 ft 437 kts 334°
2026-05-01 13:52 44.25338 6.51803 26434 ft 440 kts 334°
2026-05-01 13:52 44.28092 6.49842 27001 ft 443 kts 334°
2026-05-01 13:52 44.30831 6.47890 27539 ft 447 kts 334°
2026-05-01 13:53 44.33608 6.45908 28044 ft 450 kts 334°
2026-05-01 13:53 44.39240 6.41881 28998 ft 455 kts 334°
2026-05-01 13:53 44.42060 6.39861 29466 ft 457 kts 333°
2026-05-01 13:54 44.44879 6.37839 29999 ft 457 kts 333°
2026-05-01 13:54 44.47684 6.35825 30581 ft 454 kts 333°
2026-05-01 13:54 44.50428 6.33853 31169 ft 451 kts 332°
2026-05-01 13:54 44.53223 6.31842 31761 ft 448 kts 332°
2026-05-01 13:55 44.55982 6.29855 32348 ft 445 kts 332°
2026-05-01 13:55 44.58728 6.27874 32939 ft 442 kts 332°
2026-05-01 13:55 44.61463 6.25900 33538 ft 439 kts 332°
2026-05-01 13:55 44.64157 6.23954 34122 ft 435 kts 332°
2026-05-01 13:56 44.66841 6.22012 34688 ft 432 kts 332°
2026-05-01 13:56 44.69505 6.20083 35217 ft 430 kts 332°
2026-05-01 13:56 44.72149 6.18166 35735 ft 427 kts 332°
2026-05-01 13:56 44.74771 6.16263 36244 ft 425 kts 332°
2026-05-01 13:57 44.77396 6.14356 36675 ft 423 kts 332°
2026-05-01 13:57 44.79990 6.12470 37044 ft 422 kts 332°
2026-05-01 13:57 44.82604 6.10567 37355 ft 422 kts 332°
2026-05-01 13:57 44.85257 6.08634 37388 ft 431 kts 332°
2026-05-01 13:58 44.87919 6.06691 37232 ft 440 kts 332°
2026-05-01 13:58 44.90692 6.04665 37021 ft 448 kts 332°
2026-05-01 13:58 44.93453 6.02647 36852 ft 449 kts 332°
2026-05-01 13:58 44.96220 6.00621 36705 ft 447 kts 332°
2026-05-01 13:59 44.99012 5.98576 36452 ft 445 kts 332°
2026-05-01 13:59 45.01747 5.96569 36241 ft 446 kts 332°
2026-05-01 13:59 45.07234 5.92537 36227 ft 442 kts 332°
2026-05-01 14:00 45.09980 5.90517 36424 ft 440 kts 332°
2026-05-01 14:00 45.12687 5.88522 36719 ft 436 kts 332°
2026-05-01 14:00 45.15389 5.86530 37154 ft 428 kts 331°
2026-05-01 14:00 45.18002 5.84601 37518 ft 423 kts 331°
2026-05-01 14:01 45.20604 5.82678 37829 ft 424 kts 331°
2026-05-01 14:01 45.23254 5.80716 37937 ft 431 kts 331°
2026-05-01 14:01 45.28677 5.76695 37841 ft 450 kts 331°
2026-05-01 14:02 45.31502 5.74596 37685 ft 457 kts 331°
2026-05-01 14:02 45.34319 5.72504 37728 ft 458 kts 331°
2026-05-01 14:02 45.39974 5.68294 37925 ft 459 kts 331°
2026-05-01 14:03 45.45630 5.64074 38101 ft 462 kts 331°
2026-05-01 14:03 45.51362 5.59788 38212 ft 466 kts 331°
2026-05-01 14:04 45.57104 5.55484 38275 ft 466 kts 331°
2026-05-01 14:04 45.61908 5.51876 38273 ft 466 kts 331°
2026-05-01 14:05 45.68628 5.46817 38255 ft 465 kts 331°
2026-05-01 14:05 45.74323 5.42518 38258 ft 464 kts 331°
2026-05-01 14:06 45.80068 5.38172 38250 ft 465 kts 331°
2026-05-01 14:06 45.85786 5.33836 38259 ft 465 kts 330°
2026-05-01 14:07 45.91492 5.29498 38260 ft 466 kts 330°
2026-05-01 14:08 46.00102 5.22935 38246 ft 466 kts 330°
2026-05-01 14:08 46.05858 5.18534 38249 ft 466 kts 330°
2026-05-01 14:09 46.11444 5.14253 38249 ft 466 kts 330°
2026-05-01 14:09 46.17193 5.09835 38244 ft 467 kts 330°
2026-05-01 14:10 46.22971 5.05385 38242 ft 469 kts 330°
2026-05-01 14:10 46.28733 5.00938 38244 ft 470 kts 330°
2026-05-01 14:11 46.34504 4.96473 38242 ft 471 kts 330°
2026-05-01 14:11 46.43191 4.89732 38241 ft 471 kts 330°
2026-05-01 14:12 46.48919 4.85273 38240 ft 471 kts 330°
2026-05-01 14:12 46.54719 4.80748 38242 ft 471 kts 330°
2026-05-01 14:13 46.59558 4.76964 38238 ft 472 kts 330°
2026-05-01 14:13 46.66323 4.71661 38229 ft 473 kts 330°
2026-05-01 14:14 46.72117 4.67107 38221 ft 473 kts 330°
2026-05-01 14:14 46.77893 4.62556 38222 ft 473 kts 330°
2026-05-01 14:15 46.83662 4.57999 38227 ft 473 kts 330°
2026-05-01 14:15 46.89468 4.53402 38230 ft 474 kts 330°
2026-05-01 14:16 46.95290 4.48781 38232 ft 475 kts 330°
2026-05-01 14:16 47.01062 4.44187 38227 ft 475 kts 330°
2026-05-01 14:17 47.06908 4.39524 38232 ft 476 kts 330°
2026-05-01 14:17 47.12660 4.34925 38238 ft 476 kts 329°
2026-05-01 14:18 47.18454 4.30280 38243 ft 477 kts 329°
2026-05-01 14:18 47.23367 4.26333 38251 ft 478 kts 329°
2026-05-01 14:19 47.30144 4.20873 38248 ft 479 kts 330°
2026-05-01 14:19 47.36012 4.16133 38235 ft 480 kts 330°
2026-05-01 14:20 47.44799 4.09014 38219 ft 482 kts 330°
2026-05-01 14:21 47.50698 4.04219 38213 ft 483 kts 330°
2026-05-01 14:21 47.56581 3.99424 38212 ft 484 kts 330°
2026-05-01 14:22 47.65421 3.92196 38211 ft 485 kts 330°
2026-05-01 14:22 47.71326 3.87352 38217 ft 486 kts 330°
2026-05-01 14:23 47.77285 3.82452 38214 ft 488 kts 330°
2026-05-01 14:23 47.83199 3.77575 38209 ft 489 kts 330°
2026-05-01 14:24 47.89140 3.72663 38208 ft 489 kts 330°
2026-05-01 14:24 47.95092 3.67729 38199 ft 489 kts 330°
2026-05-01 14:25 48.01049 3.62779 38204 ft 489 kts 330°
2026-05-01 14:25 48.06992 3.57825 38205 ft 489 kts 330°
2026-05-01 14:26 48.15913 3.50367 38203 ft 489 kts 330°
2026-05-01 14:27 48.21846 3.45388 38199 ft 489 kts 330°
2026-05-01 14:27 48.27784 3.40393 38208 ft 489 kts 330°
2026-05-01 14:28 48.36733 3.32839 38197 ft 490 kts 329°
2026-05-01 14:28 48.42560 3.27563 38199 ft 489 kts 323°
2026-05-01 14:29 48.48067 3.21566 38213 ft 488 kts 323°
2026-05-01 14:30 48.59113 3.09514 38214 ft 489 kts 323°
2026-05-01 14:31 48.67382 3.00457 38216 ft 489 kts 323°
2026-05-01 14:31 48.72889 2.94407 38215 ft 490 kts 323°
2026-05-01 14:32 48.78408 2.88329 38213 ft 490 kts 323°
2026-05-01 14:32 48.83929 2.82233 38221 ft 489 kts 323°
2026-05-01 14:33 48.89467 2.76103 38213 ft 490 kts 323°
2026-05-01 14:33 48.94980 2.69983 38214 ft 490 kts 323°
2026-05-01 14:34 49.00509 2.63829 38213 ft 490 kts 323°
2026-05-01 14:34 49.06028 2.57668 38211 ft 490 kts 323°
2026-05-01 14:35 49.11526 2.51514 38210 ft 490 kts 323°
2026-05-01 14:35 49.17051 2.45314 38209 ft 490 kts 323°
2026-05-01 14:36 49.22571 2.39100 38210 ft 491 kts 323°
2026-05-01 14:36 49.28057 2.32908 38211 ft 491 kts 322°
2026-05-01 14:37 49.33573 2.26663 38212 ft 491 kts 322°
2026-05-01 14:37 49.39079 2.20414 38210 ft 492 kts 322°
2026-05-01 14:38 49.44619 2.14107 38209 ft 492 kts 322°
2026-05-01 14:38 49.50120 2.07827 38207 ft 492 kts 322°
2026-05-01 14:39 49.55625 2.01522 38216 ft 492 kts 322°
2026-05-01 14:39 49.61066 1.95275 37919 ft 479 kts 322°
2026-05-01 14:39 49.63711 1.92232 37659 ft 469 kts 322°
2026-05-01 14:40 49.66324 1.89222 37409 ft 464 kts 322°
2026-05-01 14:40 49.68889 1.86261 37165 ft 462 kts 322°
2026-05-01 14:40 49.71455 1.83297 36920 ft 461 kts 322°
2026-05-01 14:40 49.74022 1.80327 36658 ft 460 kts 322°
2026-05-01 14:41 49.76608 1.77331 36406 ft 460 kts 322°
2026-05-01 14:41 49.79159 1.74371 36160 ft 461 kts 322°
2026-05-01 14:41 49.81723 1.71391 35914 ft 462 kts 322°
2026-05-01 14:41 49.84285 1.68411 35672 ft 463 kts 322°
2026-05-01 14:42 49.86865 1.65405 35422 ft 464 kts 322°
2026-05-01 14:42 49.89468 1.62367 34942 ft 467 kts 322°
2026-05-01 14:42 49.92057 1.59343 34331 ft 468 kts 322°
2026-05-01 14:42 49.94665 1.56291 33688 ft 466 kts 322°
2026-05-01 14:43 49.97241 1.53273 33100 ft 467 kts 322°
2026-05-01 14:43 49.99776 1.50139 32471 ft 468 kts 319°
2026-05-01 14:43 50.02245 1.46785 31833 ft 470 kts 318°
2026-05-01 14:43 50.04694 1.43446 31171 ft 471 kts 318°
2026-05-01 14:44 50.07173 1.40066 30581 ft 473 kts 318°
2026-05-01 14:44 50.12063 1.33386 29337 ft 476 kts 317°
2026-05-01 14:44 50.14566 1.29960 28686 ft 474 kts 317°
2026-05-01 14:45 50.17009 1.26613 28076 ft 470 kts 317°
2026-05-01 14:45 50.21863 1.19950 26848 ft 463 kts 317°
2026-05-01 14:45 50.24268 1.16642 26223 ft 460 kts 317°
2026-05-01 14:46 50.26678 1.13322 25611 ft 455 kts 317°
2026-05-01 14:46 50.31376 1.06841 24379 ft 448 kts 317°
2026-05-01 14:46 50.33707 1.03618 23788 ft 446 kts 317°
2026-05-01 14:47 50.35992 1.00455 23208 ft 442 kts 317°
2026-05-01 14:47 50.38288 0.97272 22623 ft 439 kts 317°
2026-05-01 14:47 50.40570 0.94105 22040 ft 436 kts 317°
2026-05-01 14:48 50.44551 0.87171 20905 ft 423 kts 296°
2026-05-01 14:48 50.45634 0.82951 20295 ft 414 kts 284°
2026-05-01 14:48 50.47243 0.74401 19219 ft 408 kts 283°
2026-05-01 14:49 50.48819 0.65922 18139 ft 400 kts 280°
2026-05-01 14:49 50.49682 0.57458 17470 ft 391 kts 275°
2026-05-01 14:50 50.50211 0.51814 17177 ft 395 kts 275°
2026-05-01 14:50 50.51260 0.40559 16409 ft 391 kts 275°
2026-05-01 14:51 50.51651 0.36340 16104 ft 388 kts 275°
2026-05-01 14:51 50.52422 0.27973 15541 ft 384 kts 274°
2026-05-01 14:52 50.53180 0.19704 14976 ft 381 kts 274°
2026-05-01 14:52 50.53551 0.15630 14702 ft 379 kts 274°
2026-05-01 14:52 50.54293 0.07457 14152 ft 376 kts 274°
2026-05-01 14:53 50.54658 0.03413 13878 ft 373 kts 274°
2026-05-01 14:53 50.55018 -0.00595 13612 ft 372 kts 274°
2026-05-01 14:53 50.55377 -0.04623 13326 ft 370 kts 275°
2026-05-01 14:53 50.55732 -0.08616 13042 ft 368 kts 274°
2026-05-01 14:54 50.56084 -0.12597 12789 ft 366 kts 274°
2026-05-01 14:54 50.56433 -0.16567 12518 ft 364 kts 274°
2026-05-01 14:54 50.56777 -0.20462 12252 ft 360 kts 274°
2026-05-01 14:54 50.57119 -0.24362 11984 ft 353 kts 274°
2026-05-01 14:55 50.57449 -0.28138 11727 ft 345 kts 274°
2026-05-01 14:55 50.57770 -0.31797 11487 ft 336 kts 274°
2026-05-01 14:55 50.58082 -0.35397 11238 ft 328 kts 274°
2026-05-01 14:55 50.58412 -0.38891 11002 ft 321 kts 279°
2026-05-01 14:56 50.59208 -0.42168 10751 ft 319 kts 298°
2026-05-01 14:56 50.60573 -0.44843 10520 ft 315 kts 312°
2026-05-01 14:56 50.62111 -0.47258 10264 ft 308 kts 313°
2026-05-01 14:56 50.63612 -0.49624 10062 ft 304 kts 313°
2026-05-01 14:57 50.65100 -0.51977 9839 ft 303 kts 313°
2026-05-01 14:57 50.68054 -0.56652 9383 ft 300 kts 313°
2026-05-01 14:57 50.69709 -0.58642 9169 ft 302 kts 329°
2026-05-01 14:58 50.71582 -0.60225 8949 ft 301 kts 330°
2026-05-01 14:58 50.73412 -0.61764 8704 ft 297 kts 330°
2026-05-01 14:58 50.75219 -0.63287 8512 ft 290 kts 330°
2026-05-01 14:58 50.76973 -0.64772 8299 ft 283 kts 330°
2026-05-01 14:59 50.78711 -0.66245 8072 ft 277 kts 329°
2026-05-01 14:59 50.80388 -0.67666 7884 ft 269 kts 329°
2026-05-01 14:59 50.82033 -0.69063 7682 ft 262 kts 329°
2026-05-01 14:59 50.83628 -0.70419 7306 ft 264 kts 329°
2026-05-01 15:00 50.86807 -0.72994 6970 ft 250 kts 338°
2026-05-01 15:00 50.88464 -0.73812 6787 ft 248 kts 341°
2026-05-01 15:00 50.90109 -0.74591 6600 ft 248 kts 341°
2026-05-01 15:01 50.91769 -0.75388 6410 ft 248 kts 341°
2026-05-01 15:01 50.93441 -0.76187 6227 ft 247 kts 341°
2026-05-01 15:01 50.95064 -0.76961 6043 ft 246 kts 341°
2026-05-01 15:01 50.96732 -0.77757 5861 ft 245 kts 341°
2026-05-01 15:02 50.98371 -0.78552 5678 ft 244 kts 341°
2026-05-01 15:02 50.99451 -0.79064 5560 ft 244 kts 341°
2026-05-01 15:02 51.01650 -0.79841 5323 ft 244 kts
2026-05-01 15:02 51.03348 -0.79519 5139 ft 243 kts
2026-05-01 15:03 51.05010 -0.79118 4999 ft 241 kts
2026-05-01 15:03 51.06681 -0.78734 4780 ft 242 kts
2026-05-01 15:03 51.08349 -0.78334 4606 ft 238 kts
2026-05-01 15:03 51.09984 -0.77838 4425 ft 237 kts 11°
2026-05-01 15:04 51.11586 -0.77325 4252 ft 236 kts 11°
2026-05-01 15:04 51.13205 -0.76813 4076 ft 236 kts 11°
2026-05-01 15:04 51.14804 -0.76187 3903 ft 236 kts 15°
2026-05-01 15:04 51.16384 -0.75453 3779 ft 234 kts 15°
2026-05-01 15:05 51.17867 -0.74390 3724 ft 235 kts 38°
2026-05-01 15:05 51.18923 -0.72437 3569 ft 233 kts 58°
2026-05-01 15:05 51.19811 -0.70281 3477 ft 232 kts 58°
2026-05-01 15:05 51.20718 -0.68117 3368 ft 231 kts 57°
2026-05-01 15:06 51.21611 -0.65982 3240 ft 232 kts 57°
2026-05-01 15:06 51.22504 -0.63845 3143 ft 230 kts 57°
2026-05-01 15:06 51.23398 -0.61711 3016 ft 230 kts 57°
2026-05-01 15:06 51.24285 -0.59586 2890 ft 228 kts 57°
2026-05-01 15:07 51.25161 -0.57484 2606 ft 227 kts 57°
2026-05-01 15:07 51.26038 -0.55368 2190 ft 231 kts 58°
2026-05-01 15:07 51.26927 -0.53245 2011 ft 222 kts 53°
2026-05-01 15:07 51.28119 -0.51861 2030 ft 214 kts 12°
2026-05-01 15:08 51.29554 -0.52106 2005 ft 208 kts 330°
2026-05-01 15:08 51.30772 -0.53398 2015 ft 209 kts 314°
2026-05-01 15:08 51.31587 -0.55229 2007 ft 203 kts 287°
2026-05-01 15:08 51.32222 -0.57268 2009 ft 207 kts 309°
2026-05-01 15:09 51.33363 -0.58733 1974 ft 211 kts 317°
2026-05-01 15:09 51.34148 -0.60576 2016 ft 201 kts 277°
2026-05-01 15:09 51.33891 -0.62680 2004 ft 192 kts 230°
2026-05-01 15:09 51.32835 -0.63969 1998 ft 193 kts 206°
2026-05-01 15:10 51.31709 -0.65102 2007 ft 193 kts 225°
2026-05-01 15:10 51.30494 -0.68658 1589 ft 178 kts 244°
2026-05-01 15:10 51.29991 -0.70374 1303 ft 159 kts 241°
2026-05-01 15:11 51.29530 -0.71802 1135 ft 131 kts 239°
2026-05-01 15:11 51.28705 -0.74238 711 ft 119 kts 239°
2026-05-01 15:11 51.28306 -0.75402 486 ft 117 kts 237°
2026-05-01 15:12 51.27940 -0.76551 342 ft 116 kts 240°
2026-05-01 15:12 51.27309 -0.78442 242 ft 37 kts 245°
2026-05-01 15:12 51.27246 -0.78632 242 ft 10 kts 248°
2026-05-01 15:13 51.27415 -0.78575 242 ft 16 kts 41°
2026-05-01 15:14 51.27609 -0.78306 242 ft 19 kts 41°
2026-05-01 15:14 51.27714 -0.78143 242 ft 22 kts 35°
2026-05-01 15:14 51.27981 -0.77874 242 ft 19 kts
2026-05-01 15:15 51.28214 -0.77673 242 ft 11 kts
2026-05-01 15:15 51.28251 -0.77684 242 ft 0 kts 347°